Location: Cold Norton
(51.6667°N, 0.6667°E)
Time: 06:04:36
(UTC+00:00)

BREEZE-M DEB (TANK) - Pass Details

Date: 18 November 2025
Orbit: 304 x 15917 km, 49.3° (Epoch: 09 December)

Event Time Altitude Azimuth Distance (km) Brightness Sun altitude
Rises 17:29:41 0° 234° (SW) 2,049 6.6 -13.2°
Reaches altitude 10° 17:31:08 10° 224° (SW) 1,358 5.3 -13.4°
Maximum altitude 17:33:33 40° 151° (SSE) 785 3.0 -13.7°
Enters shadow 17:36:22 20° 91° (E) 1,827 4.3 -14.2°
